Find Starlink 6122

NORAD ID: 56128 Int'l Des: 2023-046 Owner: SPXS Country: US Constellation: starlink operational
LEOCIRCULAR

实时位置

正在加载3D地球...

关于 Starlink 6122

正在加载描述...

即将过境

Passes for default location (London). Set your location on the main map for personalized predictions.

高度历史

Loading altitude history...

两行轨道根数

1 56128U 23046AN 26118.69539271 -.00003287 00000-0 -11275-3 0 9998
2 56128 43.0039 224.9463 0002005 277.8933 82.1691 15.26777280169849
Epoch: Apr 28, 2026 • Age: 14 hours

当前状态

高度 486.1 km
速度 7.62 km/s
星下点 -8.21°S, 105.98°W
发射日期 Mar 29, 2023
运行时间 3 years
类型 internet

技术详情

分类 Payload
质量 305.00 kg
干质量 290.00 kg
总质量 305.00 kg
长度 0.20 m
直径 2.80 m
跨度 9.00 m
形状 Box + pan
制造商 SPXS
平台类型 Starlink
阶段状态 In Orbit
所有者/国家 SPXS/US

Most Searched